�ϑ��_��,����,�C��[��],�C�� �i�����,���x[%RH],���x �i�����,���n�C��[hPa],���n�C�� �i�����,�C�ʋC��[hPa],�C�ʋC�� �i�����,����[m/s],���� �i�����,����,���� �i�����,�ő�u�ԕ���[m/s],�ő�u�ԕ��� �i�����,�ő�u�ԕ���������,�ő�u�ԕ��������� �i�����,����[W/�u],���� �i�����,���J,���J �i�����,1���ԉJ��[mm/h],1���ԉJ�� �i�����,�ϐ��[cm],�ϐ�� �i�����,�~���[cm/h],�~��� �i�����,����[m],���� �i�����,���ʕω�,���ʕω� �i�����
�k�C���X�y�[�X�|�[�g(�����),2022/08/01 01:00:00,21.3,0,92,0,1009.8,0,1012.6,0,0.3,0,�쓌,0,5.1,0,��,0,0,0,�Ȃ�,0,0.0,0,,,,,,,,
�k�C���X�y�[�X�|�[�g(�����),2022/08/01 02:00:00,21.3,0,93,0,1010.2,0,1013.0,0,2.1,0,���k��,0,2.7,0,�k��,0,0,0,�Ȃ�,0,0.0,0,,,,,,,,
�k�C���X�y�[�X�|�[�g(�����),2022/08/01 03:00:00,20.8,0,97,0,1010.6,0,1013.4,0,1.7,0,��,0,4.1,0,���k��,0,0,0,�Ȃ�,0,0.0,0,,,,,,,,
�k�C���X�y�[�X�|�[�g(�����),2022/08/01 04:00:00,20.6,0,92,0,1011.1,0,1013.9,0,0.9,0,�k��,0,3.0,0,���k��,0,0,0,�Ȃ�,0,0.0,0,,,,,,,,
�k�C���X�y�[�X�|�[�g(�����),2022/08/01 05:00:00,20.1,0,93,0,1011.5,0,1014.3,0,0.5,0,�k�k��,0,1.6,0,�k��,0,26,0,����,0,0.0,0,,,,,,,,
�k�C���X�y�[�X�|�[�g(�����),2022/08/01 06:00:00,20.0,0,89,0,1012.5,0,1015.3,0,0.9,0,�k�k��,0,3.5,0,�k�k��,0,63,0,����,0,0.0,0,,,,,,,,
�k�C���X�y�[�X�|�[�g(�����),2022/08/01 07:00:00,19.5,0,90,0,1013.0,0,1015.8,0,4.8,0,��,0,6.9,0,��,0,71,0,����,0,0.0,0,,,,,,,,
�k�C���X�y�[�X�|�[�g(�����),2022/08/01 08:00:00,19.0,0,89,0,1013.3,0,1016.1,0,5.3,0,��,0,8.1,0,��,0,71,0,����,0,0.0,0,,,,,,,,
�k�C���X�y�[�X�|�[�g(�����),2022/08/01 09:00:00,18.9,0,91,0,1013.7,0,1016.5,0,3.9,0,��,0,7.1,0,��,0,83,0,����,0,0.0,0,,,,,,,,
�k�C���X�y�[�X�|�[�g(�����),2022/08/01 10:00:00,18.7,0,89,0,1013.8,0,1016.6,0,3.4,0,���쓌,0,5.9,0,���쓌,0,121,0,����,0,0.0,0,,,,,,,,
�k�C���X�y�[�X�|�[�g(�����),2022/08/01 11:00:00,18.4,0,92,0,1013.7,0,1016.5,0,3.9,0,���쓌,0,6.0,0,���쓌,0,158,0,����,0,0.0,0,,,,,,,,
�k�C���X�y�[�X�|�[�g(�����),2022/08/01 12:00:00,18.5,0,89,0,1013.4,0,1016.2,0,4.4,0,��,0,6.4,0,���쓌,0,150,0,����,0,0.0,0,,,,,,,,
�k�C���X�y�[�X�|�[�g(�����),2022/08/01 13:00:00,18.6,0,90,0,1013.4,0,1016.2,0,3.6,0,���쓌,0,6.2,0,��,0,135,0,����,0,0.0,0,,,,,,,,
�k�C���X�y�[�X�|�[�g(�����),2022/08/01 14:00:00,18.7,0,90,0,1013.3,0,1016.1,0,3.4,0,���쓌,0,5.6,0,��,0,121,0,����,0,0.0,0,,,,,,,,
�k�C���X�y�[�X�|�[�g(�����),2022/08/01 15:00:00,18.9,0,88,0,1013.2,0,1016.0,0,3.6,0,���쓌,0,5.7,0,���쓌,0,104,0,����,0,0.0,0,,,,,,,,
�k�C���X�y�[�X�|�[�g(�����),2022/08/01 16:00:00,18.9,0,87,0,1013.2,0,1016.0,0,3.2,0,���쓌,0,6.1,0,���쓌,0,59,0,����,0,0.0,0,,,,,,,,
�k�C���X�y�[�X�|�[�g(�����),2022/08/01 17:00:00,18.5,0,90,0,1012.9,0,1015.7,0,3.0,0,���쓌,0,5.1,0,�쓌,0,66,0,����,0,0.0,0,,,,,,,,
�k�C���X�y�[�X�|�[�g(�����),2022/08/01 18:00:00,18.4,0,92,0,1012.8,0,1015.6,0,3.1,0,���쓌,0,4.8,0,���쓌,0,21,0,����,0,0.0,0,,,,,,,,
�k�C���X�y�[�X�|�[�g(�����),2022/08/01 19:00:00,18.2,0,92,0,1012.9,0,1015.7,0,3.8,0,���쓌,0,5.7,0,��,0,1,0,����,0,0.5,0,,,,,,,,
�k�C���X�y�[�X�|�[�g(�����),2022/08/01 20:00:00,18.0,0,93,0,1013.2,0,1016.0,0,3.0,0,���쓌,0,6.9,0,��,0,0,0,����,0,0.5,0,,,,,,,,
�k�C���X�y�[�X�|�[�g(�����),2022/08/01 21:00:00,17.8,0,96,0,1013.4,0,1016.2,0,3.1,0,���쓌,0,5.7,0,��,0,0,0,����,0,2.5,0,,,,,,,,
�k�C���X�y�[�X�|�[�g(�����),2022/08/01 22:00:00,17.1,0,97,0,1012.2,0,1015.0,0,4.3,0,��,0,7.0,0,��,0,0,0,����,0,6.5,0,,,,,,,,
�k�C���X�y�[�X�|�[�g(�����),2022/08/01 23:00:00,17.1,0,100,0,1011.5,0,1014.3,0,4.6,0,��,0,7.7,0,��,0,0,0,����,0,7.0,0,,,,,,,,
�k�C���X�y�[�X�|�[�g(�����),2022/08/02 00:00:00,16.3,0,100,0,1011.0,0,1013.9,0,5.7,0,��,0,9.1,0,��,0,0,0,����,0,6.0,0,,,,,,,,
�k�C���X�y�[�X�|�[�g(�����),2022/08/02 01:00:00,15.7,0,99,0,1010.6,0,1013.5,0,4.9,0,��,0,7.9,0,��,0,0,0,����,0,3.0,0,,,,,,,,
�k�C���X�y�[�X�|�[�g(�����),2022/08/02 02:00:00,15.9,0,100,0,1009.9,0,1012.8,0,4.6,0,��,0,6.9,0,��,0,0,0,����,0,2.5,0,,,,,,,,
�k�C���X�y�[�X�|�[�g(�����),2022/08/02 03:00:00,16.0,0,100,0,1009.3,0,1012.2,0,2.1,0,�k��,0,6.1,0,��,0,0,0,����,0,4.0,0,,,,,,,,
�k�C���X�y�[�X�|�[�g(�����),2022/08/02 04:00:00,15.2,0,100,0,1009.4,0,1012.3,0,4.1,0,�k�k��,0,7.3,0,�k�k��,0,0,0,����,0,6.5,0,,,,,,,,
�k�C���X�y�[�X�|�[�g(�����),2022/08/02 05:00:00,14.6,0,100,0,1009.0,0,1011.9,0,2.5,0,�k�k��,0,5.3,0,�k�k��,0,0,0,����,0,5.5,0,,,,,,,,
�k�C���X�y�[�X�|�[�g(�����),2022/08/02 06:00:00,14.9,0,100,0,1008.6,0,1011.5,0,1.7,0,�k�k��,0,5.3,0,�k�k��,0,5,0,����,0,8.5,0,,,,,,,,
�k�C���X�y�[�X�|�[�g(�����),2022/08/02 07:00:00,14.9,0,100,0,1008.8,0,1011.7,0,2.6,0,�k�k��,0,5.3,0,�k�k��,0,33,0,����,0,8.5,0,,,,,,,,
�k�C���X�y�[�X�|�[�g(�����),2022/08/02 08:00:00,15.7,0,100,0,1008.7,0,1011.6,0,1.6,0,�k,0,5.9,0,�k�k��,0,104,0,����,0,2.5,0,,,,,,,,
�k�C���X�y�[�X�|�[�g(�����),2022/08/02 09:00:00,16.0,0,100,0,1008.3,0,1011.1,0,1.2,0,�k�k��,0,5.6,0,�k�k��,0,146,0,����,0,0.5,0,,,,,,,,
�k�C���X�y�[�X�|�[�g(�����),2022/08/02 10:00:00,16.4,0,100,0,1008.6,0,1011.4,0,1.5,0,�k,0,5.6,0,�k�k��,0,195,0,����,0,1.5,0,,,,,,,,
�k�C���X�y�[�X�|�[�g(�����),2022/08/02 11:00:00,17.1,0,100,0,1008.4,0,1011.2,0,2.0,0,�k��,0,5.0,0,�k�k��,0,236,0,�Ȃ�,0,0.0,0,,,,,,,,
�k�C���X�y�[�X�|�[�g(�����),2022/08/02 12:00:00,17.4,0,100,0,1008.0,0,1010.8,0,2.1,0,�k�k��,0,4.8,0,�k�k��,0,225,0,�Ȃ�,0,0.5,0,,,,,,,,
�k�C���X�y�[�X�|�[�g(�����),2022/08/02 13:00:00,17.8,0,100,0,1008.1,0,1010.9,0,1.9,0,�k�k��,0,5.0,0,�k�k��,0,221,0,����,0,0.0,0,,,,,,,,
�k�C���X�y�[�X�|�[�g(�����),2022/08/02 14:00:00,18.0,0,98,0,1008.3,0,1011.1,0,2.6,0,�k��,0,6.1,0,��,0,361,0,�Ȃ�,0,0.0,0,,,,,,,,
�k�C���X�y�[�X�|�[�g(�����),2022/08/02 15:00:00,17.8,0,97,0,1008.4,0,1011.2,0,2.6,0,�k��,0,6.1,0,���k��,0,300,0,�Ȃ�,0,0.0,0,,,,,,,,
�k�C���X�y�[�X�|�[�g(�����),2022/08/02 16:00:00,18.3,0,94,0,1008.6,0,1011.4,0,2.9,0,�k��,0,5.2,0,�k��,0,236,0,�Ȃ�,0,0.0,0,,,,,,,,
�k�C���X�y�[�X�|�[�g(�����),2022/08/02 17:00:00,18.2,0,96,0,1008.9,0,1011.7,0,1.8,0,���k��,0,4.3,0,�k�k��,0,133,0,�Ȃ�,0,0.0,0,,,,,,,,
�k�C���X�y�[�X�|�[�g(�����),2022/08/02 18:00:00,17.7,0,99,0,1009.1,0,1011.9,0,1.8,0,���k��,0,4.9,0,���k��,0,52,0,�Ȃ�,0,0.0,0,,,,,,,,
�k�C���X�y�[�X�|�[�g(�����),2022/08/02 19:00:00,17.4,0,99,0,1009.4,0,1012.2,0,2.0,0,�k��,0,4.6,0,�k��,0,5,0,�Ȃ�,0,0.0,0,,,,,,,,
�k�C���X�y�[�X�|�[�g(�����),2022/08/02 20:00:00,17.1,0,99,0,1010.1,0,1012.9,0,2.1,0,�k��,0,4.8,0,�k��,0,0,0,�Ȃ�,0,0.0,0,,,,,,,,
�k�C���X�y�[�X�|�[�g(�����),2022/08/02 21:00:00,16.5,0,100,0,1010.3,0,1013.1,0,2.0,0,�k��,0,5.1,0,�k��,0,0,0,�Ȃ�,0,0.0,0,,,,,,,,
�k�C���X�y�[�X�|�[�g(�����),2022/08/02 22:00:00,16.1,0,100,0,1010.3,0,1013.2,0,2.1,0,�k��,0,6.1,0,�k��,0,0,0,�Ȃ�,0,0.0,0,,,,,,,,
�k�C���X�y�[�X�|�[�g(�����),2022/08/02 23:00:00,16.1,0,100,0,1010.5,0,1013.4,0,2.1,0,�k�k��,0,4.7,0,�k�k��,0,0,0,�Ȃ�,0,0.0,0,,,,,,,,
�k�C���X�y�[�X�|�[�g(�����),2022/08/03 00:00:00,15.8,0,100,0,1010.1,0,1013.0,0,2.2,0,�k��,0,4.6,0,�k�k��,0,0,0,����,0,0.0,0,,,,,,,,
�k�C���X�y�[�X�|�[�g(�����),2022/08/03 01:00:00,15.7,0,100,0,1009.6,0,1012.5,0,2.0,0,�k�k��,0,4.3,0,�k�k��,0,0,0,�Ȃ�,0,0.0,0,,,,,,,,
�k�C���X�y�[�X�|�[�g(�����),2022/08/03 02:00:00,15.7,0,100,0,1009.6,0,1012.5,0,1.1,0,�k�k��,0,3.2,0,�k�k��,0,0,0,����,0,0.5,0,,,,,,,,
�k�C���X�y�[�X�|�[�g(�����),2022/08/03 03:00:00,15.7,0,100,0,1009.7,0,1012.6,0,0.9,0,�k�k��,0,2.1,0,���k��,0,0,0,����,0,0.0,0,,,,,,,,
�k�C���X�y�[�X�|�[�g(�����),2022/08/03 04:00:00,15.7,2,100,0,1009.7,0,1012.6,2,1.1,0,�k��,0,1.9,0,�k�k��,0,0,0,����,0,0.5,0,,,,,,,,
�k�C���X�y�[�X�|�[�g(�����),2022/08/03 05:00:00,15.9,0,100,0,1009.7,0,1012.6,0,0.8,0,�k�k��,0,1.8,0,�k�k��,0,6,0,����,0,0.5,0,,,,,,,,
�k�C���X�y�[�X�|�[�g(�����),2022/08/03 06:00:00,16.0,0,100,0,1010.0,0,1012.9,0,1.1,0,�k��,0,2.0,0,�k�k��,0,28,0,����,0,0.5,0,,,,,,,,
�k�C���X�y�[�X�|�[�g(�����),2022/08/03 07:00:00,16.5,0,100,0,1010.1,0,1012.9,0,0.9,0,���k��,0,2.2,0,�k�k��,0,52,0,����,0,0.5,0,,,,,,,,
�k�C���X�y�[�X�|�[�g(�����),2022/08/03 08:00:00,16.2,0,100,0,1009.6,0,1012.4,0,2.0,0,�k��,0,4.2,0,�k��,0,83,0,����,0,0.5,0,,,,,,,,
�k�C���X�y�[�X�|�[�g(�����),2022/08/03 09:00:00,16.7,0,100,0,1009.9,0,1012.7,0,2.1,0,�k�k��,0,4.6,0,�k��,0,117,0,����,0,0.0,0,,,,,,,,
�k�C���X�y�[�X�|�[�g(�����),2022/08/03 10:00:00,16.6,0,100,0,1009.7,0,1012.5,0,2.7,0,�k�k��,0,4.9,0,�k�k��,0,172,0,����,0,1.5,0,,,,,,,,
�k�C���X�y�[�X�|�[�g(�����),2022/08/03 11:00:00,17.0,0,100,0,1009.2,0,1012.0,0,2.2,0,�k��,0,4.7,0,�k�k��,0,151,0,����,0,0.5,0,,,,,,,,
�k�C���X�y�[�X�|�[�g(�����),2022/08/03 12:00:00,17.7,0,100,0,1008.8,0,1011.6,0,2.6,0,�k��,0,5.7,0,�k�k��,0,186,0,����,0,0.5,0,,,,,,,,
�k�C���X�y�[�X�|�[�g(�����),2022/08/03 13:00:00,18.7,0,100,0,1008.9,0,1011.7,0,2.0,0,�k��,0,5.4,0,�k�k��,0,238,0,�Ȃ�,0,0.0,0,,,,,,,,
�k�C���X�y�[�X�|�[�g(�����),2022/08/03 14:00:00,19.7,0,97,0,1009.1,0,1011.9,0,2.1,0,�k��,0,5.0,0,�k��,0,330,0,����,0,0.0,0,,,,,,,,
�k�C���X�y�[�X�|�[�g(�����),2022/08/03 15:00:00,18.8,0,94,0,1009.4,0,1012.2,0,2.9,0,���k��,0,5.3,0,���k��,0,331,0,�Ȃ�,0,0.0,0,,,,,,,,
�k�C���X�y�[�X�|�[�g(�����),2022/08/03 16:00:00,18.8,0,94,0,1009.7,0,1012.5,0,2.1,0,���k��,0,4.9,0,���k��,0,204,0,�Ȃ�,0,0.0,0,,,,,,,,
�k�C���X�y�[�X�|�[�g(�����),2022/08/03 17:00:00,18.4,0,97,0,1009.2,0,1012.0,0,1.9,0,�k��,0,4.8,0,�k��,0,123,0,�Ȃ�,0,0.0,0,,,,,,,,
�k�C���X�y�[�X�|�[�g(�����),2022/08/03 18:00:00,17.8,0,100,0,1009.5,0,1012.3,0,1.8,0,�k��,0,4.7,0,�k��,0,36,0,����,0,0.0,0,,,,,,,,
�k�C���X�y�[�X�|�[�g(�����),2022/08/03 19:00:00,17.5,0,100,0,1009.9,0,1012.7,0,1.5,0,�k��,0,4.0,0,�k�k��,0,0,0,�Ȃ�,0,0.0,0,,,,,,,,
�k�C���X�y�[�X�|�[�g(�����),2022/08/03 20:00:00,17.6,0,100,0,1010.5,0,1013.3,0,1.5,0,�k��,0,4.0,0,�k�k��,0,0,0,�Ȃ�,0,0.0,0,,,,,,,,
�k�C���X�y�[�X�|�[�g(�����),2022/08/03 21:00:00,17.5,0,100,0,1010.5,0,1013.3,0,1.8,0,�k��,0,3.9,0,�k�k��,0,0,0,����,0,0.0,0,,,,,,,,
�k�C���X�y�[�X�|�[�g(�����),2022/08/03 22:00:00,17.3,0,99,0,1010.1,0,1012.9,0,2.0,0,�k��,0,4.4,0,�k��,0,0,0,����,0,0.0,0,,,,,,,,
�k�C���X�y�[�X�|�[�g(�����),2022/08/03 23:00:00,16.9,0,99,0,1010.4,0,1013.2,0,3.3,0,�k��,0,5.9,0,�k��,0,0,0,����,0,0.0,0,,,,,,,,
�k�C���X�y�[�X�|�[�g(�����),2022/08/04 00:00:00,16.5,0,100,0,1010.1,0,1012.9,0,2.2,0,�k��,0,5.7,0,�k��,0,0,0,����,0,0.0,0,,,,,,,,
�k�C���X�y�[�X�|�[�g(�����),2022/08/04 01:00:00,16.1,0,100,0,1009.8,0,1012.7,0,2.2,0,�k��,0,4.9,0,�k�k��,0,0,0,����,0,0.0,0,,,,,,,,
�k�C���X�y�[�X�|�[�g(�����),2022/08/04 02:00:00,16.1,0,100,0,1009.9,0,1012.8,0,2.4,0,�k�k��,0,4.4,0,�k�k��,0,0,0,�Ȃ�,0,0.0,0,,,,,,,,
�k�C���X�y�[�X�|�[�g(�����),2022/08/04 03:00:00,15.7,0,100,0,1009.7,0,1012.6,0,2.5,0,�k��,0,4.9,0,�k�k��,0,0,0,����,0,0.0,0,,,,,,,,
�k�C���X�y�[�X�|�[�g(�����),2022/08/04 04:00:00,15.5,0,100,0,1010.1,0,1013.0,0,2.5,0,�k��,0,6.1,0,�k�k��,0,0,0,����,0,0.0,0,,,,,,,,
�k�C���X�y�[�X�|�[�g(�����),2022/08/04 05:00:00,15.1,0,100,0,1011.0,0,1013.9,0,2.7,0,�k�k��,0,4.7,0,�k�k��,0,0,0,�Ȃ�,0,0.0,0,,,,,,,,
�k�C���X�y�[�X�|�[�g(�����),2022/08/04 06:00:00,15.2,0,100,0,1011.5,0,1014.4,0,2.0,0,�k��,0,5.4,0,���k��,0,18,0,����,0,0.0,0,,,,,,,,
�k�C���X�y�[�X�|�[�g(�����),2022/08/04 07:00:00,15.1,0,100,0,1011.8,0,1014.7,0,2.2,0,�k��,0,5.9,0,���k��,0,54,0,����,0,0.0,0,,,,,,,,
�k�C���X�y�[�X�|�[�g(�����),2022/08/04 08:00:00,16.1,0,97,0,1011.6,0,1014.5,0,2.7,0,���k��,0,6.1,0,���k��,0,221,0,����,0,0.0,0,,,,,,,,
�k�C���X�y�[�X�|�[�g(�����),2022/08/04 09:00:00,16.7,0,91,0,1011.7,0,1014.5,0,3.6,0,���k��,0,7.0,0,��,0,485,0,����,0,0.0,0,,,,,,,,
�k�C���X�y�[�X�|�[�g(�����),2022/08/04 10:00:00,16.9,0,90,0,1011.6,0,1014.4,0,3.0,0,���k��,0,7.2,0,��,0,556,0,�Ȃ�,0,0.0,0,,,,,,,,
�k�C���X�y�[�X�|�[�g(�����),2022/08/04 11:00:00,17.5,0,90,0,1011.5,0,1014.3,0,3.9,0,���k��,0,6.6,0,��,0,503,0,�Ȃ�,0,0.0,0,,,,,,,,
�k�C���X�y�[�X�|�[�g(�����),2022/08/04 12:00:00,17.9,0,87,0,1011.1,0,1013.9,0,4.1,0,��,0,7.1,0,��,0,951,0,�Ȃ�,0,0.0,0,,,,,,,,
�k�C���X�y�[�X�|�[�g(�����),2022/08/04 13:00:00,18.4,0,85,0,1010.5,0,1013.3,0,3.2,0,��,0,6.7,0,���k��,0,962,0,�Ȃ�,0,0.0,0,,,,,,,,
�k�C���X�y�[�X�|�[�g(�����),2022/08/04 14:00:00,18.5,0,85,0,1010.4,0,1013.2,0,3.1,0,��,0,5.3,0,��,0,797,0,�Ȃ�,0,0.0,0,,,,,,,,
�k�C���X�y�[�X�|�[�g(�����),2022/08/04 15:00:00,18.3,0,83,0,1010.3,0,1013.1,0,3.1,0,��,0,6.1,0,��,0,719,0,�Ȃ�,0,0.0,0,,,,,,,,
�k�C���X�y�[�X�|�[�g(�����),2022/08/04 16:00:00,18.1,0,88,0,1009.9,0,1012.7,0,3.8,0,��,0,5.4,0,��,0,344,0,����,0,0.0,0,,,,,,,,
�k�C���X�y�[�X�|�[�g(�����),2022/08/04 17:00:00,18.2,0,90,0,1010.2,0,1013.0,0,2.3,0,��,0,5.1,0,��,0,162,0,����,0,0.0,0,,,,,,,,
�k�C���X�y�[�X�|�[�g(�����),2022/08/04 18:00:00,18.0,0,88,0,1010.2,0,1013.0,0,1.2,0,���k��,0,3.5,0,��,0,71,0,����,0,0.0,0,,,,,,,,
�k�C���X�y�[�X�|�[�g(�����),2022/08/04 19:00:00,17.6,0,93,0,1010.2,0,1013.0,0,0.9,0,�k��,0,2.0,0,���k��,0,3,0,����,0,0.0,0,,,,,,,,
�k�C���X�y�[�X�|�[�g(�����),2022/08/04 20:00:00,17.7,0,93,0,1011.0,0,1013.8,0,0.8,0,���k��,0,1.7,0,�k��,0,0,0,����,0,0.0,0,,,,,,,,
�k�C���X�y�[�X�|�[�g(�����),2022/08/04 21:00:00,17.5,0,95,0,1010.8,0,1013.6,0,1.0,0,���k��,0,2.5,0,��,0,0,0,����,0,0.0,0,,,,,,,,
�k�C���X�y�[�X�|�[�g(�����),2022/08/04 22:00:00,17.3,0,96,0,1010.7,0,1013.5,0,0.9,0,�k�k��,0,2.8,0,��,0,0,0,�Ȃ�,0,0.0,0,,,,,,,,
�k�C���X�y�[�X�|�[�g(�����),2022/08/04 23:00:00,16.9,0,98,0,1010.6,0,1013.4,0,1.2,0,�k��,0,2.6,0,���k��,0,0,0,�Ȃ�,0,0.0,0,,,,,,,,
�k�C���X�y�[�X�|�[�g(�����),2022/08/05 00:00:00,16.5,0,98,0,1010.3,0,1013.1,0,1.0,0,�k�k��,0,2.6,0,�k��,0,0,0,�Ȃ�,0,0.0,0,,,,,,,,
�k�C���X�y�[�X�|�[�g(�����),2022/08/05 01:00:00,16.1,0,99,0,1009.9,0,1012.8,0,1.0,0,�k�k��,0,2.7,0,�k�k��,0,0,0,�Ȃ�,0,0.0,0,,,,,,,,
�k�C���X�y�[�X�|�[�g(�����),2022/08/05 02:00:00,16.1,0,100,0,1009.9,0,1012.8,0,1.6,0,�k��,0,3.0,0,�k�k��,0,0,0,�Ȃ�,0,0.0,0,,,,,,,,
�k�C���X�y�[�X�|�[�g(�����),2022/08/05 03:00:00,15.7,0,100,0,1009.9,0,1012.8,0,2.1,0,�k��,0,4.0,0,�k�k��,0,0,0,�Ȃ�,0,0.0,0,,,,,,,,
�k�C���X�y�[�X�|�[�g(�����),2022/08/05 04:00:00,15.7,0,99,0,1010.2,0,1013.1,0,1.8,0,�k�k��,0,3.6,0,�k�k��,0,0,0,�Ȃ�,0,0.0,0,,,,,,,,
�k�C���X�y�[�X�|�[�g(�����),2022/08/05 05:00:00,15.7,0,97,0,1010.9,0,1013.8,0,0.4,0,���k��,0,5.6,0,��,0,0,0,�Ȃ�,0,0.0,0,,,,,,,,
�k�C���X�y�[�X�|�[�g(�����),2022/08/05 06:00:00,15.6,0,97,0,1010.9,0,1013.8,0,2.1,0,��,0,3.2,0,��,0,14,0,�Ȃ�,0,0.0,0,,,,,,,,
�k�C���X�y�[�X�|�[�g(�����),2022/08/05 07:00:00,15.9,0,95,0,1010.9,0,1013.8,0,3.0,0,�k��,0,5.7,0,�k�k��,0,116,0,����,0,0.0,0,,,,,,,,
�k�C���X�y�[�X�|�[�g(�����),2022/08/05 08:00:00,16.6,0,90,0,1011.0,0,1013.8,0,3.0,0,���k��,0,6.2,0,��,0,281,0,����,0,0.0,0,,,,,,,,
�k�C���X�y�[�X�|�[�g(�����),2022/08/05 09:00:00,16.3,0,89,0,1011.0,0,1013.9,0,3.2,0,�k��,0,6.2,0,�k�k��,0,377,0,����,0,0.0,0,,,,,,,,
�k�C���X�y�[�X�|�[�g(�����),2022/08/05 10:00:00,16.4,0,89,0,1010.9,0,1013.8,0,3.4,0,�k��,0,7.0,0,���k��,0,433,0,����,0,0.0,0,,,,,,,,
�k�C���X�y�[�X�|�[�g(�����),2022/08/05 11:00:00,17.0,0,87,0,1010.7,0,1013.5,0,3.5,0,���k��,0,7.6,0,�k�k��,0,507,0,����,0,0.0,0,,,,,,,,
�k�C���X�y�[�X�|�[�g(�����),2022/08/05 12:00:00,17.9,0,88,0,1010.5,0,1013.3,0,3.9,0,��,0,6.8,0,��,0,677,0,����,0,0.0,0,,,,,,,,
�k�C���X�y�[�X�|�[�g(�����),2022/08/05 13:00:00,18.7,0,83,0,1010.1,0,1012.9,0,4.5,0,��,0,6.5,0,���k��,0,774,0,����,0,0.0,0,,,,,,,,
�k�C���X�y�[�X�|�[�g(�����),2022/08/05 14:00:00,18.9,0,84,0,1010.0,0,1012.8,0,3.8,0,��,0,6.9,0,��,0,591,0,����,0,0.0,0,,,,,,,,
�k�C���X�y�[�X�|�[�g(�����),2022/08/05 15:00:00,18.9,0,86,0,1009.9,0,1012.7,0,3.3,0,��,0,6.1,0,��,0,401,0,����,0,0.0,0,,,,,,,,
�k�C���X�y�[�X�|�[�g(�����),2022/08/05 16:00:00,18.4,0,87,0,1010.0,0,1012.8,0,3.3,0,���쓌,0,5.7,0,��,0,242,0,����,0,0.0,0,,,,,,,,
�k�C���X�y�[�X�|�[�g(�����),2022/08/05 17:00:00,18.3,0,88,0,1009.8,0,1012.6,0,3.0,0,��,0,4.6,0,���쓌,0,141,0,����,0,0.0,0,,,,,,,,
�k�C���X�y�[�X�|�[�g(�����),2022/08/05 18:00:00,18.1,0,90,0,1010.1,0,1012.9,0,1.9,0,���쓌,0,4.0,0,���쓌,0,55,0,����,0,0.0,0,,,,,,,,
�k�C���X�y�[�X�|�[�g(�����),2022/08/05 19:00:00,17.7,0,92,0,1010.2,0,1013.0,0,0.7,0,�쓌,0,3.6,0,��,0,5,0,�Ȃ�,0,0.0,0,,,,,,,,
�k�C���X�y�[�X�|�[�g(�����),2022/08/05 20:00:00,16.9,0,94,0,1010.8,0,1013.6,0,0.6,0,�k��,0,1.7,0,���k��,0,0,0,�Ȃ�,0,0.0,0,,,,,,,,
�k�C���X�y�[�X�|�[�g(�����),2022/08/05 21:00:00,16.4,0,98,0,1010.7,0,1013.6,0,0.9,0,�k��,0,1.8,0,��,0,0,0,�Ȃ�,0,0.0,0,,,,,,,,
�k�C���X�y�[�X�|�[�g(�����),2022/08/05 22:00:00,15.4,0,99,0,1010.7,0,1013.6,0,0.2,0,�k��,0,2.1,0,�k�k��,0,0,0,�Ȃ�,0,0.0,0,,,,,,,,
�k�C���X�y�[�X�|�[�g(�����),2022/08/05 23:00:00,15.0,0,100,0,1010.7,0,1013.6,0,1.4,0,���k��,0,1.7,0,���k��,0,0,0,�Ȃ�,0,0.0,0,,,,,,,,
�k�C���X�y�[�X�|�[�g(�����),2022/08/06 00:00:00,14.9,0,100,0,1010.6,0,1013.5,0,0.9,0,�k��,0,1.7,0,���k��,0,0,0,�Ȃ�,0,0.0,0,,,,,,,,
�k�C���X�y�[�X�|�[�g(�����),2022/08/06 01:00:00,15.5,0,100,0,1010.7,0,1013.6,0,0.4,0,�k�k��,0,1.7,0,���k��,0,0,0,�Ȃ�,0,0.0,0,,,,,,,,
�k�C���X�y�[�X�|�[�g(�����),2022/08/06 02:00:00,15.5,0,100,0,1010.5,0,1013.4,0,0.5,0,�k�k��,0,2.1,0,�k�k��,0,0,0,�Ȃ�,0,0.0,0,,,,,,,,
�k�C���X�y�[�X�|�[�g(�����),2022/08/06 03:00:00,15.7,0,100,0,1010.2,0,1013.1,0,0.7,0,�k�k��,0,1.9,0,�k�k��,0,0,0,�Ȃ�,0,0.0,0,,,,,,,,
�k�C���X�y�[�X�|�[�g(�����),2022/08/06 04:00:00,15.8,0,100,0,1010.4,0,1013.3,0,0.4,0,�k�k��,0,1.9,0,���k��,0,0,0,�Ȃ�,0,0.0,0,,,,,,,,
�k�C���X�y�[�X�|�[�g(�����),2022/08/06 05:00:00,15.8,0,100,0,1010.7,0,1013.6,0,0.6,0,�k,0,1.4,0,�k��,0,0,0,�Ȃ�,0,0.0,0,,,,,,,,
�k�C���X�y�[�X�|�[�g(�����),2022/08/06 06:00:00,15.8,0,99,0,1011.1,0,1014.0,0,1.5,0,�k��,0,3.0,0,�k��,0,29,0,����,0,0.0,0,,,,,,,,
�k�C���X�y�[�X�|�[�g(�����),2022/08/06 07:00:00,16.4,0,97,0,1011.1,0,1014.0,0,1.9,0,�k��,0,3.6,0,�k�k��,0,100,0,����,0,0.0,0,,,,,,,,
�k�C���X�y�[�X�|�[�g(�����),2022/08/06 08:00:00,17.0,0,94,0,1011.0,0,1013.8,0,2.6,0,�k��,0,4.6,0,�k�k��,0,223,0,����,0,0.5,0,,,,,,,,
�k�C���X�y�[�X�|�[�g(�����),2022/08/06 09:00:00,17.9,0,93,0,1011.1,0,1013.9,0,2.1,0,�k��,0,5.5,0,�k�k��,0,333,0,����,0,0.0,0,,,,,,,,
�k�C���X�y�[�X�|�[�g(�����),2022/08/06 10:00:00,18.8,0,89,0,1011.0,0,1013.8,0,3.8,0,���k��,0,6.1,0,���k��,0,504,0,����,0,0.0,0,,,,,,,,
�k�C���X�y�[�X�|�[�g(�����),2022/08/06 11:00:00,18.8,0,89,0,1010.7,0,1013.5,0,3.9,0,���k��,0,7.2,0,��,0,801,0,����,0,0.0,0,,,,,,,,
�k�C���X�y�[�X�|�[�g(�����),2022/08/06 12:00:00,18.1,0,90,0,1010.3,0,1013.1,0,4.1,0,���k��,0,7.4,0,��,0,797,0,����,0,0.0,0,,,,,,,,
�k�C���X�y�[�X�|�[�g(�����),2022/08/06 13:00:00,18.0,0,89,0,1010.3,0,1013.1,0,4.3,0,��,0,7.1,0,��,0,756,0,����,0,0.0,0,,,,,,,,
�k�C���X�y�[�X�|�[�g(�����),2022/08/06 14:00:00,18.6,0,87,0,1010.1,0,1012.9,0,3.5,0,��,0,6.8,0,��,0,698,0,����,0,0.0,0,,,,,,,,
�k�C���X�y�[�X�|�[�g(�����),2022/08/06 15:00:00,18.9,0,90,0,1010.3,0,1013.1,0,3.1,0,��,0,5.1,0,��,0,363,0,����,0,0.0,0,,,,,,,,
�k�C���X�y�[�X�|�[�g(�����),2022/08/06 16:00:00,18.6,0,92,0,1010.4,0,1013.2,0,2.0,0,���쓌,0,4.0,0,��,0,172,0,����,0,0.0,0,,,,,,,,
�k�C���X�y�[�X�|�[�g(�����),2022/08/06 17:00:00,18.4,0,92,0,1010.3,0,1013.1,0,1.9,0,���쓌,0,2.8,0,��,0,92,0,����,0,0.0,0,,,,,,,,
�k�C���X�y�[�X�|�[�g(�����),2022/08/06 18:00:00,18.6,0,90,0,1010.8,0,1013.6,0,0.3,0,���쓌,0,3.3,0,�쓌,0,35,0,�Ȃ�,0,0.0,0,,,,,,,,
�k�C���X�y�[�X�|�[�g(�����),2022/08/06 19:00:00,17.9,0,94,0,1011.1,0,1013.9,0,0.7,0,�쓌,0,1.4,0,���쓌,0,7,0,����,0,0.0,0,,,,,,,,
�k�C���X�y�[�X�|�[�g(�����),2022/08/06 20:00:00,17.5,0,100,0,1011.3,0,1014.1,0,0.8,0,�k�k��,0,1.4,0,�k�k��,0,0,0,����,0,0.0,0,,,,,,,,
�k�C���X�y�[�X�|�[�g(�����),2022/08/06 21:00:00,17.2,0,100,0,1011.2,0,1014.0,0,0.2,0,��,0,1.4,0,�k�k��,0,0,0,����,0,0.0,0,,,,,,,,
�k�C���X�y�[�X�|�[�g(�����),2022/08/06 22:00:00,17.1,0,100,0,1011.1,0,1013.9,0,0.3,0,���k��,0,1.2,0,�k�k��,0,0,0,����,0,0.0,0,,,,,,,,
�k�C���X�y�[�X�|�[�g(�����),2022/08/06 23:00:00,17.2,0,100,0,1011.1,0,1013.9,0,0.5,0,�k�k��,0,1.6,0,�k�k��,0,0,0,����,0,0.0,0,,,,,,,,
�k�C���X�y�[�X�|�[�g(�����),2022/08/07 00:00:00,17.3,0,100,0,1010.9,0,1013.7,0,0.8,0,�k�k��,0,1.8,0,�k�k��,0,0,0,����,0,0.0,0,,,,,,,,
�k�C���X�y�[�X�|�[�g(�����),2022/08/07 01:00:00,17.4,0,100,0,1010.7,0,1013.5,0,0.6,0,�k��,0,1.5,0,�k�k��,0,0,0,�Ȃ�,0,0.0,0,,,,,,,,
�k�C���X�y�[�X�|�[�g(�����),2022/08/07 02:00:00,17.3,0,100,0,1010.7,0,1013.5,0,0.5,0,�k�k��,0,2.1,0,�k�k��,0,0,0,�Ȃ�,0,0.5,0,,,,,,,,
�k�C���X�y�[�X�|�[�g(�����),2022/08/07 03:00:00,17.6,0,100,0,1010.4,0,1013.2,0,1.5,0,���쓌,0,2.6,0,�쓌,0,0,0,�Ȃ�,0,0.0,0,,,,,,,,
�k�C���X�y�[�X�|�[�g(�����),2022/08/07 04:00:00,17.7,0,100,0,1010.5,0,1013.3,0,0.5,0,���k��,0,2.5,0,�쓌,0,0,0,�Ȃ�,0,0.0,0,,,,,,,,
�k�C���X�y�[�X�|�[�g(�����),2022/08/07 05:00:00,17.8,0,100,0,1010.8,0,1013.6,0,1.2,0,�k�k��,0,1.7,0,�k��,0,2,0,�Ȃ�,0,0.0,0,,,,,,,,
�k�C���X�y�[�X�|�[�g(�����),2022/08/07 06:00:00,18.1,0,100,0,1011.1,0,1013.9,0,0.9,0,�쓌,0,1.9,0,��,0,27,0,����,0,0.0,0,,,,,,,,
�k�C���X�y�[�X�|�[�g(�����),2022/08/07 07:00:00,18.7,0,99,0,1011.1,0,1013.9,0,1.3,0,�k��,0,2.9,0,���k��,0,128,0,����,0,0.0,0,,,,,,,,
�k�C���X�y�[�X�|�[�g(�����),2022/08/07 08:00:00,19.4,0,96,0,1011.0,0,1013.8,0,0.8,0,�k�k��,0,2.4,0,��,0,208,0,����,0,0.0,0,,,,,,,,
�k�C���X�y�[�X�|�[�g(�����),2022/08/07 09:00:00,19.5,0,93,0,1011.5,0,1014.3,0,2.0,0,�쓌,0,3.7,0,��쓌,0,346,0,�Ȃ�,0,0.0,0,,,,,,,,
�k�C���X�y�[�X�|�[�g(�����),2022/08/07 10:00:00,20.3,0,87,0,1011.5,0,1014.3,0,2.9,0,��쓌,0,5.4,0,��쐼,0,464,0,����,0,0.0,0,,,,,,,,
�k�C���X�y�[�X�|�[�g(�����),2022/08/07 11:00:00,19.6,0,95,0,1011.0,0,1013.8,0,2.6,0,��쓌,0,4.7,0,��쓌,0,339,0,�Ȃ�,0,0.0,0,,,,,,,,
�k�C���X�y�[�X�|�[�g(�����),2022/08/07 12:00:00,19.3,0,97,0,1010.6,0,1013.4,0,2.5,0,��쓌,0,5.2,0,��,0,307,0,�Ȃ�,0,0.0,0,,,,,,,,
�k�C���X�y�[�X�|�[�g(�����),2022/08/07 13:00:00,19.4,0,98,0,1010.3,0,1013.1,0,2.4,0,�쓌,0,3.7,0,���쓌,0,186,0,����,0,0.0,0,,,,,,,,
�k�C���X�y�[�X�|�[�g(�����),2022/08/07 14:00:00,19.9,0,97,0,1010.0,0,1012.8,0,2.6,0,��쓌,0,4.4,0,��쓌,0,238,0,�Ȃ�,0,0.0,0,,,,,,,,
�k�C���X�y�[�X�|�[�g(�����),2022/08/07 15:00:00,20.2,0,98,0,1009.9,0,1012.7,0,2.3,0,�쓌,0,4.5,0,�쓌,0,275,0,�Ȃ�,0,0.0,0,,,,,,,,
�k�C���X�y�[�X�|�[�g(�����),2022/08/07 16:00:00,19.8,0,100,0,1010.1,0,1012.9,0,2.3,0,��쓌,0,4.4,0,��쓌,0,163,0,����,0,0.0,0,,,,,,,,
�k�C���X�y�[�X�|�[�g(�����),2022/08/07 17:00:00,19.5,0,100,0,1010.2,0,1013.0,0,1.9,0,��쓌,0,3.9,0,�쓌,0,91,0,�Ȃ�,0,0.0,0,,,,,,,,
�k�C���X�y�[�X�|�[�g(�����),2022/08/07 18:00:00,19.6,0,100,0,1010.0,0,1012.8,0,1.2,0,��쓌,0,5.1,0,���쓌,0,26,0,�Ȃ�,0,0.0,0,,,,,,,,
�k�C���X�y�[�X�|�[�g(�����),2022/08/07 19:00:00,19.7,0,100,0,1010.3,0,1013.1,0,1.3,0,��,0,2.6,0,��,0,1,0,�Ȃ�,0,0.0,0,,,,,,,,
�k�C���X�y�[�X�|�[�g(�����),2022/08/07 20:00:00,19.7,0,100,0,1011.0,0,1013.8,0,0.6,0,��쓌,0,2.0,0,��,0,0,0,�Ȃ�,0,0.0,0,,,,,,,,
�k�C���X�y�[�X�|�[�g(�����),2022/08/07 21:00:00,19.8,0,100,0,1010.9,0,1013.7,0,0.7,0,��,0,1.4,0,�k�k��,0,0,0,�Ȃ�,0,0.0,0,,,,,,,,
�k�C���X�y�[�X�|�[�g(�����),2022/08/07 22:00:00,19.8,0,100,0,1010.7,0,1013.5,0,0.5,0,���k��,0,1.0,0,�k��,0,0,0,�Ȃ�,0,0.0,0,,,,,,,,
�k�C���X�y�[�X�|�[�g(�����),2022/08/07 23:00:00,19.5,0,100,0,1009.8,0,1012.6,0,1.4,0,��,0,1.9,0,��,0,0,0,�Ȃ�,0,0.0,0,,,,,,,,
�k�C���X�y�[�X�|�[�g(�����),2022/08/08 00:00:00,19.4,0,100,0,1009.6,0,1012.4,0,1.2,0,���k��,0,1.8,0,��,0,0,0,�Ȃ�,0,0.0,0,,,,,,,,
�k�C���X�y�[�X�|�[�g(�����),2022/08/08 01:00:00,19.4,0,100,0,1009.1,0,1011.9,0,1.2,0,��,0,1.6,0,��,0,0,0,�Ȃ�,0,0.0,0,,,,,,,,
�k�C���X�y�[�X�|�[�g(�����),2022/08/08 02:00:00,19.3,0,100,0,1008.6,0,1011.4,0,0.6,0,���k��,0,2.3,0,�k��,0,0,0,�Ȃ�,0,0.0,0,,,,,,,,
�k�C���X�y�[�X�|�[�g(�����),2022/08/08 03:00:00,19.6,0,100,0,1007.9,0,1010.7,0,0.8,0,�k,0,2.1,0,���k��,0,0,0,����,0,2.0,0,,,,,,,,
�k�C���X�y�[�X�|�[�g(�����),2022/08/08 04:00:00,19.7,0,100,0,1007.7,0,1010.5,0,1.6,0,�k��,0,2.2,0,�k��,0,0,0,�Ȃ�,0,0.0,0,,,,,,,,
�k�C���X�y�[�X�|�[�g(�����),2022/08/08 05:00:00,19.7,0,100,0,1007.4,0,1010.2,0,1.6,0,�k��,0,2.7,0,�k��,0,4,0,�Ȃ�,0,0.0,0,,,,,,,,
�k�C���X�y�[�X�|�[�g(�����),2022/08/08 06:00:00,19.9,0,100,0,1007.6,0,1010.4,0,1.7,0,�k��,0,2.6,0,�k��,0,41,0,�Ȃ�,0,0.0,0,,,,,,,,
�k�C���X�y�[�X�|�[�g(�����),2022/08/08 07:00:00,20.5,0,100,0,1007.5,0,1010.3,0,1.3,0,���k��,0,2.7,0,���k��,0,149,0,�Ȃ�,0,0.5,0,,,,,,,,
�k�C���X�y�[�X�|�[�g(�����),2022/08/08 08:00:00,21.2,0,98,0,1007.4,0,1010.2,0,1.3,0,��쓌,0,2.0,0,���k��,0,225,0,�Ȃ�,0,0.0,0,,,,,,,,
�k�C���X�y�[�X�|�[�g(�����),2022/08/08 09:00:00,21.2,0,94,0,1006.9,0,1009.7,0,2.7,0,�쓌,0,4.2,0,��쓌,0,323,0,�Ȃ�,0,0.0,0,,,,,,,,
�k�C���X�y�[�X�|�[�g(�����),2022/08/08 10:00:00,20.6,0,98,0,1006.7,0,1009.5,0,2.6,0,���쓌,0,4.1,0,�쓌,0,367,0,�Ȃ�,0,0.0,0,,,,,,,,
�k�C���X�y�[�X�|�[�g(�����),2022/08/08 11:00:00,20.8,0,100,0,1006.2,0,1009.0,0,2.1,0,�쓌,0,3.4,0,���쓌,0,315,0,�Ȃ�,0,0.0,0,,,,,,,,